Weather Service Report


384 
ASUS42 KRAH 050810
RWRRAH
NORTH CAROLINA WEATHER ROUNDUP
NATIONAL WEATHER SERVICE RALEIGH NC
300 AM EST MON DEC 05 2016

NOTE: "FAIR" INDICATES FEW OR NO CLOUDS BELOW 12,000 FEET WITH NO
SIGNIFICANT WEATHER AND/OR OBSTRUCTIONS TO VISIBILITY.

NCZ001-053-055-056-065-067-050900-
WESTERN NORTH CAROLINA
  
CITY           SKY/WX    TMP DP  RH WIND       PRES   REMARKS
ASHEVILLE      LGT RAIN  41  39  93 N7        30.00R                  
JEFFERSON      MOCLDY    42  42  99 CALM      29.96R FOG              
MORGANTON      CLOUDY    40  40 100 CALM      30.03F FOG              
HICKORY        CLOUDY    41  41 100 CALM      29.98S                  
RUTHERFORDTON  CLOUDY    41  41 100 CALM      30.00F                  
MOUNT AIRY     DRIZZLE   40  38  94 CALM      30.02S                  
BOONE          CLOUDY    45  45 100 W12       29.97R FOG              
$$
 
NCZ021-022-025-041-071-084-088-050900-
CENTRAL NORTH CAROLINA
  
CITY           SKY/WX    TMP DP  RH WIND       PRES   REMARKS
CHARLOTTE      LGT RAIN  42  40  92 N7        30.03R                  
GREENSBORO     CLOUDY    41  40  96 SE3       30.00F                  
WINSTON-SALEM  CLOUDY    40  38  93 CALM      30.01F                  
RALEIGH-DURHAM RAIN      43  41  93 CALM      30.03F FOG              
FORT BRAGG     LGT RAIN N/A N/A N/A NW8         N/A                   
FAYETTEVILLE   LGT RAIN  45  44  97 N10       29.98F FOG              
BURLINGTON     LGT RAIN  42  41  96 NW3       30.03F                  
LAURINBURG     RAIN      45  43  93 N8        30.01S FOG              
$$
 
NCZ011-015-027-028-043-044-047-080-103-050900-
NORTHEASTERN NORTH CAROLINA
  
CITY           SKY/WX    TMP DP  RH WIND       PRES   REMARKS
ROCKY MT-WILSO LGT RAIN  44  44 100 N6        30.01S FOG              
GREENVILLE     LGT RAIN  45  45 100 CALM      30.03S                  
WASHINGTON     LGT RAIN  46  45  97 E6        30.01F                  
ELIZABETH CITY LGT RAIN  46  45  96 E5        30.01F                  
MANTEO         LGT RAIN  50  49  99 E7        30.02F                  
CAPE HATTERAS  RAIN      63  61  93 S15G23    29.99F FOG              
$$
 
NCZ078-087-090-091-093-098-101-050900-
SOUTHEASTERN NORTH CAROLINA
  
CITY           SKY/WX    TMP DP  RH WIND       PRES   REMARKS
LUMBERTON      RAIN      46  46 100 NW9       29.98R FOG              
GOLDSBORO      LGT RAIN  46  46 100 N3        29.96F FOG              
KINSTON        RAIN      47  46  99 CALM      29.99F                  
KENANSVILLE    RAIN      46  46 100 CALM      29.97F FOG              
NEW BERN       LGT RAIN  49  48  97 CALM      29.99F                  
CHERRY POINT   LGT RAIN  54  53  97 NE3       29.99F                  
BEAUFORT       RAIN      63  62  97 SW20      29.98F FOG              
JACKSONVILLE   HVY RAIN  50  49  96 N3        29.96F FOG              
WILMINGTON     LGT RAIN  59  59 100 S6        29.95F                  
$$

  

Return to Home page


Western Regional Climate Center, wrcc@dri.edu